Change the Weather History Date:

Sunday, February 17, 2013

  Actual Average Record
Temperature  
Mean Temperature 80 °F -  
Max Temperature 89 °F 91 °F 95 °F (1998)
Min Temperature 72 °F 75 °F 68 °F (2007)
Cooling Degree Days 16    
Growing Degree Days 30 (Base 50)    
Moisture  
Dew Point 61 °F    
Average Humidity 45    
Maximum Humidity 65    
Minimum Humidity 29    
Precipitation  
Precipitation 0.00 in - - ()
Sea Level Pressure  
Sea Level Pressure 29.85 in    
Wind  
Wind Speed 16 mph ()    
Max Wind Speed 25 mph    
Max Gust Speed 37 mph    
Visibility 12.0 miles    
Events      
Averages and records for this station are not official NWS values.
T = Trace of Precipitation, MM = Missing Value Source: Averaged Metar Reports

Daily Weather History Graph

Daily Weather History Graph

Search for Another Location

Airport or City:

Trip Planner

Search our weather history database for the weather conditions in past years. The results will help you decide how hot, cold, wet, or windy it might be!

Date:

Astronomy

Feb. 17, 2013 Rise Set
Actual Time 6:01 AM CST 5:50 PM CST
Civil Twilight 5:40 AM CST 6:12 PM CST
Nautical Twilight 5:15 AM CST 6:37 PM CST
Astronomical Twilight 4:50 AM CST 7:01 PM CST
Moon 11:18 AM CST (2/17) No Moon Set
Length of Visible Light 12h 31m
Length of Day
11h 49m
Waxing Crescent, 49% of the Moon is Illuminated
Feb 17
Waxing Crescent
Feb 17
First Quarter
Feb 25
Full
Mar 4
Last Quarter
Mar 11
New

Hourly Weather History & Observations

Time (CST) Temp. Heat Index Dew Point Humidity Pressure Visibility Wind Dir Wind Speed Gust Speed Precip Events Conditions
6:00 AM 78 °F - 63 °F 50% 29.86 in 12 mi NE 9.2 mph - -  
6:00 AM - - - N/A% - - NE 9.2 mph 21.9 mph N/A   Clear
7:00 AM 80.6 °F 81.8 °F 62.6 °F 54% 29.86 in - ENE 19.6 mph - N/A   Clear
8:00 AM 82.4 °F 82.9 °F 60.8 °F 48% 29.87 in - ENE 19.6 mph - N/A   Clear
9:00 AM 86 °F - 59 °F 30% 29.90 in 12 mi ENE 21.9 mph - -  
9:00 AM 86.0 °F 85.4 °F 59.0 °F 40% 29.89 in - ENE 21.9 mph - N/A   Clear
10:00 AM 87.8 °F 87.1 °F 59.0 °F 38% 29.89 in - ENE 23.0 mph - N/A   Clear
11:00 AM 87.8 °F 86.5 °F 57.2 °F 35% 29.88 in - East 21.9 mph 35.7 mph N/A   Clear
12:00 PM 89 °F - 61 °F 29% 29.86 in 12 mi East 21.9 mph - -  
12:00 PM 89.6 °F 89.5 °F 60.8 °F 38% 29.85 in - East 21.9 mph 36.8 mph N/A   Clear
1:00 PM 87.8 °F 88.5 °F 62.6 °F 43% 29.82 in - East 25.3 mph 36.8 mph N/A   Clear
2:00 PM 89.6 °F 88.1 °F 57.2 °F 33% 29.78 in - East 25.3 mph 36.8 mph N/A   Clear
3:00 PM 89.6 °F 87.7 °F 55.4 °F 31% 29.77 in - ENE 23.0 mph - N/A   Clear
4:00 PM 87.8 °F 87.6 °F 60.8 °F 40% 29.77 in - ENE 23.0 mph 34.5 mph N/A   Clear
5:00 PM 84.2 °F 84.4 °F 60.8 °F 45% 29.79 in - ENE 25.3 mph 36.8 mph N/A   Clear
6:00 PM 82.4 °F 82.9 °F 60.8 °F 48% 29.80 in - ENE 23.0 mph 34.5 mph N/A   Clear
7:00 PM 80.6 °F 81.5 °F 60.8 °F 51% 29.83 in - ENE 23.0 mph - N/A   Clear
8:00 PM 78.8 °F - 62.6 °F 57% 29.87 in - NW 11.5 mph - N/A   Clear
9:00 PM 78.8 °F - 62.6 °F 57% 29.90 in - ENE 16.1 mph - N/A   Clear
10:00 PM 77.0 °F - 64.4 °F 65% 29.91 in - ENE 16.1 mph - N/A   Clear
11:00 PM 75.2 °F - 62.6 °F 65% 29.92 in - NE 19.6 mph - N/A   Clear